Vertical_Velocity
-4 -5 -6 -6 -5 -4 -4 -3 -2 -1 -1 -2 -2 -1 0 2 2 1 1 1 1 1 1 1 3 4 4 2 -1 -1 -0 1 2 3 5 7 8 11 15 19 17 13 9 9 5 3 2 4 5 5 5 4 2 1 -0 -2 -3 -3 -3 -3 -3 -2 -2 -2 -3 -3 -2 -0 2
-3 -4 -5 -5 -5 -5 -4 -4 -2 -1 -1 -2 -2 -2 -1 1 2 2 1 1 1 1 1 1 1 2 3 4 2 1 -0 0 1 1 2 4 7 10 12 10 6 4 2 2 2 -0 -2 -0 1 1 1 -0 0 1 1 -0 -2 -2 -2 -2 -3 -3 -4 -5 -4 -4 -2 -1 2
-2 -3 -4 -4 -5 -5 -4 -4 -3 -2 -1 -0 -1 -2 -2 -1 1 2 2 1 2 2 1 1 0 0 1 2 3 3 2 0 -0 -0 -1 -3 -1 3 6 2 -2 -4 -4 -4 -4 -6 -6 -5 -4 -2 -2 -1 1 1 0 -1 -1 -0 -0 -1 -1 -3 -5 -6 -6 -5 -4 -2 1
-1 -1 -2 -3 -4 -4 -4 -4 -4 -3 -2 -0 -0 -1 -2 -3 -1 1 2 2 2 2 3 2 1 -0 -0 0 1 2 2 2 1 -0 -2 -4 -6 -3 1 1 -0 -2 -4 -5 -6 -6 -6 -6 -5 -4 -2 -1 -1 -2 -1 1 1 1 1 1 1 1 -2 -5 -6 -6 -5 -3 -1
0 -0 -1 -2 -3 -4 -4 -5 -4 -4 -3 -1 -0 -0 -1 -3 -2 -1 1 2 2 3 4 4 2 0 -1 -1 -0 -0 0 1 1 1 -0 -1 -4 -5 -5 -5 -0 1 0 -2 -3 -4 -4 -5 -4 -4 -3 -2 -3 -0 4 8 6 4 2 1 3 4 2 -0 -3 -4 -4 -3 -2
1 -0 -1 -2 -3 -4 -5 -5 -4 -4 -3 -3 -2 -1 -1 -2 -3 -2 -1 1 1 2 3 4 4 3 0 -1 -1 -1 -0 -0 -0 0 1 2 0 -2 -4 -6 -6 -3 -0 3 0 -1 -2 -2 -3 -3 -3 -2 -2 2 8 13 12 10 7 5 5 5 5 5 3 1 -1 -3 -1
-0 -1 -1 -2 -2 -3 -4 -4 -5 -5 -4 -4 -3 -2 -1 -1 -2 -2 -2 -1 -0 1 2 4 5 5 3 1 -1 -2 -1 -1 -0 -0 0 1 3 2 1 -2 -4 -4 -1 6 5 4 1 -1 -2 -2 -2 -2 -2 0 4 9 10 10 9 8 7 6 5 6 5 4 2 -2 3
-2 -2 -1 -1 -2 -2 -3 -3 -4 -5 -5 -4 -4 -3 -2 -1 -1 -2 -2 -3 -2 -1 0 1 4 6 6 4 2 -0 -1 -1 -1 -1 -1 -0 1 2 3 3 0 -2 -2 1 5 6 5 2 -2 -3 -3 -3 -2 -0 1 3 2 2 4 7 7 6 5 6 13 14 11 2 2
-3 -2 -2 -1 -1 -1 -2 -3 -4 -4 -4 -4 -3 -3 -3 -2 -1 -1 -2 -2 -2 -2 -1 -1 2 4 6 6 4 2 1 -0 -1 -1 -1 -1 -1 -0 1 2 2 1 -1 -2 -1 0 1 2 -1 -2 -1 1 4 4 2 -2 -3 -2 1 6 7 6 5 7 21 25 21 7 2
-1 -1 -1 -1 -1 -1 -2 -3 -4 -4 -4 -4 -3 -3 -3 -3 -2 -1 -1 -1 -2 -2 -2 -2 -1 1 3 5 4 4 2 1 -0 -1 -1 -0 -1 -2 -2 -1 -0 0 1 0 -1 -2 -2 -1 -1 11 21 18 14 9 4 -1 -1 1 3 6 6 5 5 9 21 26 24 14 8
-0 -0 -1 -1 -0 -1 -1 -2 -3 -4 -4 -4 -3 -3 -3 -3 -3 -2 -1 -1 -1 -2 -2 -3 -3 -2 -0 2 4 4 3 3 2 1 -0 0 0 -1 -2 -3 -3 -2 -1 -0 0 0 -0 -0 4 22 35 27 15 9 5 2 1 2 3 4 2 1 2 7 19 26 27 19 12
-0 -0 -1 -1 -0 -1 -1 -2 -2 -2 -3 -3 -3 -3 -3 -3 -2 -2 -2 -2 -1 -1 -1 -2 -3 -4 -3 -1 1 2 3 3 3 2 1 0 0 -0 -1 -2 -3 -3 -3 -2 -1 0 0 -0 9 24 34 24 12 7 6 3 1 0 0 1 -1 -2 -0 6 16 23 25 23 17
-0 -1 -1 -1 -1 -1 -1 -0 -0 -1 -1 -2 -2 -3 -2 -2 -2 -2 -2 -2 -1 -1 -0 -1 -2 -3 -3 -3 -1 0 1 2 2 2 2 2 0 -0 -1 -1 -1 -2 -3 -4 -3 -1 -1 -1 6 18 26 20 11 7 4 3 2 1 1 1 -0 -1 1 6 10 15 19 23 19
-0 -1 -1 -1 -1 -0 -0 0 1 1 1 -0 -1 -2 -2 -3 -3 -2 -2 -1 -0 -0 -0 -0 -1 -1 -1 -1 -1 -0 1 1 1 1 1 2 1 1 -0 -0 -0 -1 -2 -3 -3 -2 -1 -2 -0 5 10 9 6 3 2 2 3 3 2 5 4 3 2 4 5 8 11 16 14
-1 -1 -1 -1 -1 -0 0 1 1 2 2 1 1 -0 -2 -3 -3 -3 -3 -2 -1 -0 -0 -1 -1 -1 -0 0 -1 1 3 2 1 -0 -0 0 1 1 1 0 0 -0 -1 -2 -3 -2 -2 -2 -2 -1 -1 -2 -4 3 12 15 9 4 1 3 4 4 2 1 1 3 7 10 7
-1 -1 -1 -1 -0 -0 0 1 1 2 2 2 2 1 -0 -1 -2 -3 -3 -3 -2 -2 -2 -1 -2 -2 -2 -2 -2 -0 2 2 1 -0 -1 -1 -0 0 1 1 0 0 -0 -0 -1 -2 -2 -2 -2 -2 -4 -6 -11 3 22 31 28 18 6 -1 -0 -0 -1 -2 -2 -0 5 14 6
-1 -1 -1 -1 -0 -0 0 1 1 1 2 2 2 2 1 1 -0 -1 -2 -2 -3 -3 -3 -2 -2 -2 -2 -2 -2 -2 -3 -1 -0 -0 -0 -1 -2 -2 -1 -1 -0 -0 0 0 -0 -0 -0 -0 -1 -2 -3 -6 -12 -2 14 24 31 31 22 6 -1 -4 -4 -4 -5 -5 1 16 12
-1 -1 -1 -1 -0 -0 0 0 1 1 1 1 2 2 2 2 1 1 0 -0 -1 -2 -1 -0 0 -0 -1 -0 1 1 1 2 1 2 1 -1 -2 -3 -2 -2 -1 -1 -1 -1 -0 1 1 1 1 -0 -2 -4 -10 -5 4 11 18 25 26 18 4 -3 -5 -6 -6 -8 -4 9 12
-1 -1 -1 -1 -0 0 0 0 0 1 1 1 1 1 1 2 2 1 1 1 1 1 1 2 3 4 4 4 8 12 16 16 12 8 4 1 -1 -2 -3 -2 -2 -1 -1 -1 -1 -0 1 2 2 2 1 -1 -4 -3 1 6 11 16 18 14 6 -1 -4 -5 -6 -7 -6 0 5
-1 -1 -0 -0 0 0 1 1 1 1 1 1 1 1 1 1 1 1 1 1 2 2 3 3 3 4 5 5 7 11 16 20 20 14 9 8 4 -0 -3 -3 -2 -2 -1 -1 -1 -1 -0 0 1 2 2 2 1 1 3 4 8 11 12 7 4 1 -2 -4 -4 -4 -3 -1 1
-1 -0 -0 -0 0 0 1 1 1 1 1 0 0 0 0 0 0 0 0 1 1 1 1 2 2 2 2 2 2 2 4 9 13 13 13 18 12 5 -0 -3 -3 -3 -2 -1 -1 -0 -0 -0 -1 -1 -0 0 0 1 2 3 5 8 9 6 4 2 0 -1 -1 -1 -0 0 1
-1 -0 -0 -0 -0 0 0 0 0 0 0 0 -0 -0 -0 -0 0 0 0 0 -0 -0 -0 -0 -0 -0 -0 -0 -0 -0 -1 0 3 6 9 14 11 8 5 2 -1 -2 -2 -2 -2 -1 -0 1 -0 -1 -2 -3 -3 -2 -1 1 2 4 6 6 4 2 2 2 1 1 1 1 0
-1 -1 -0 -0 -0 -0 -0 -0 -0 -0 -0 -0 -0 -0 -0 0 0 -0 -0 -0 -0 -1 -1 -1 -1 -1 -1 -1 -0 -1 -1 -1 0 2 4 8 6 4 2 0 0 0 -1 -3 -2 -0 1 1 1 -0 -2 -4 -4 -4 -3 -2 -1 1 2 3 3 3 3 3 2 2 1 0 -0
-1 -1 -1 -0 -0 -0 -1 -1 -1 -1 -0 -0 0 0 0 0 -0 -0 -0 -0 -0 -0 -0 -1 -1 -1 -1 -1 -1 -1 -0 -0 0 1 2 4 6 5 3 -0 -0 -0 1 3 5 4 1 -1 2 3 3 1 -1 -3 -3 -2 -1 0 1 1 2 3 3 3 2 2 1 1 0
-1 -1 -1 -1 -1 -1 -1 -1 -1 -1 -0 0 0 0 0 0 0 0 0 1 1 0 0 0 -0 -0 -1 -2 -1 -1 -1 -0 0 0 1 1 3 4 4 4 1 -1 -1 1 1 1 0 -0 3 5 5 5 3 2 1 2 1 1 1 1 2 3 3 2 2 1 1 1 1
-1 -1 -1 -1 -1 -1 -1 -1 -0 -0 -0 -0 -0 -0 -0 0 1 1 1 1 1 1 1 1 1 0 -0 -0 -1 -1 -1 -1 -0 0 1 1 1 2 3 4 4 2 0 -0 0 1 1 0 1 1 2 2 2 3 3 3 1 1 0 1 0 1 1 1 1 1 1 1 1
-1 -1 -1 -1 -1 -1 -1 -0 -0 -0 -0 -1 -1 -1 -0 0 0 1 1 1 1 2 2 2 2 2 1 1 1 -0 -1 -1 -1 -0 0 1 1 2 2 3 3 3 2 1 1 1 1 1 0 0 1 1 1 1 1 -0 -1 0 1 1 1 0 -0 -1 -1 -1 -1 -0 -0
-1 -1 -1 -1 -1 -1 -1 -1 -0 -0 -0 -0 -0 -1 -1 -0 -0 -0 0 0 0 1 1 1 2 2 2 2 2 2 1 1 0 0 0 1 1 2 2 2 2 2 2 2 2 2 1 1 1 1 1 2 2 2 2 1 0 1 2 3 4 3 0 -2 -3 -3 -3 -3 -2
-1 -2 -1 -1 -1 -1 -1 -1 -1 -1 -0 -0 -0 -0 -1 -1 -1 -1 -1 -1 -1 -1 -0 -0 1 1 2 2 3 3 3 2 2 1 1 1 2 2 2 2 2 2 2 1 2 2 2 2 2 1 1 1 1 2 2 2 2 2 2 4 4 2 0 -2 -3 -4 -4 -4 -2
-1 -2 -1 -1 -1 -1 -1 -1 -1 -1 -1 -0 -0 -0 -0 -1 -1 -2 -2 -1 -1 -1 -0 -0 -0 0 1 2 2 2 3 3 3 2 2 1 2 2 3 3 3 3 2 2 2 1 1 2 2 2 1 -0 -0 -0 0 1 2 2 2 2 1 0 -1 -1 -2 -3 -4 -3 -2
-1 -2 -2 -2 -1 -1 -1 -1 -1 -1 -1 -1 -1 -1 -0 -0 -1 -1 -1 -1 -1 -1 -1 -1 -1 -1 -0 -0 0 1 1 1 1 2 2 1 1 2 3 4 4 4 3 3 3 2 1 1 1 2 2 2 1 -0 -1 -1 -0 -0 0 0 0 -0 -0 -0 -1 -2 -2 -2 -2
-1 -1 -2 -2 -2 -1 -1 -1 -1 -1 -2 -2 -2 -2 -1 -0 -0 -0 -1 -1 -1 -2 -2 -3 -3 -3 -3 -3 -2 -2 -1 -1 -1 -0 -0 0 0 1 1 3 4 4 4 4 4 3 3 1 1 1 1 2 2 2 1 -0 -1 -1 -1 -1 -1 -0 -0 0 0 -0 -1 -1 -1
-1 -1 -1 -1 -2 -2 -2 -1 -1 -1 -2 -2 -2 -2 -2 -2 -1 -1 -1 -1 -2 -2 -2 -3 -3 -3 -4 -4 -4 -3 -3 -2 -2 -2 -2 -2 -2 -1 -1 0 2 3 4 5 5 5 4 4 2 1 1 1 1 2 2 1 0 -0 -1 -1 -1 -1 -1 -0 0 0 -0 -0 -0
-1 -1 -1 -1 -1 -2 -2 -2 -2 -2 -2 -2 -2 -2 -3 -3 -3 -3 -2 -2 -2 -2 -2 -2 -2 -2 -2 -2 -3 -3 -3 -3 -2 -2 -2 -3 -3 -3 -3 -2 -1 1 2 3 4 5 5 5 4 3 2 1 1 1 1 2 1 1 0 0 -0 -0 -1 -1 -1 -1 -0 -0 0
-2 -2 -2 -2 -2 -2 -2 -2 -2 -2 -2 -2 -3 -3 -3 -3 -3 -3 -3 -3 -2 -2 -2 -2 -2 -2 -2 -3 -2 -2 -2 -3 -2 -2 -2 -2 -3 -4 -4 -4 -3 -2 -0 1 2 3 4 5 6 5 5 3 2 1 1 1 1 1 1 1 1 0 0 -0 -1 -1 -1 -0 0
-2 -2 -2 -2 -2 -2 -2 -2 -2 -2 -2 -3 -3 -3 -3 -4 -4 -4 -4 -4 -4 -3 -3 -3 -3 -3 -3 -3 -3 -3 -3 -3 -3 -2 -2 -1 -2 -3 -4 -5 -5 -4 -3 -1 0 1 2 3 4 5 5 6 4 3 2 1 1 1 1 2 1 1 1 1 -0 -0 -0 0 0
-2 -2 -2 -2 -2 -2 -2 -2 -2 -2 -2 -3 -3 -3 -3 -4 -4 -4 -4 -4 -5 -5 -4 -4 -3 -3 -3 -3 -3 -3 -3 -3 -3 -3 -3 -2 -2 -2 -3 -4 -5 -5 -5 -3 -2 -1 0 1 2 3 4 5 5 5 4 3 1 1 1 1 2 1 1 1 0 0 0 0 1
-1 -2 -2 -2 -2 -2 -2 -2 -2 -2 -2 -3 -3 -3 -3 -3 -3 -4 -4 -4 -5 -5 -6 -5 -4 -4 -4 -3 -3 -3 -3 -3 -3 -3 -4 -4 -3 -3 -3 -3 -4 -5 -5 -5 -4 -3 -1 -0 1 1 2 3 4 4 5 5 3 2 1 1 1 1 1 1 1 0 0 1 1
-1 -1 -2 -2 -2 -2 -2 -2 -2 -2 -2 -2 -3 -3 -3 -3 -3 -4 -4 -4 -4 -5 -5 -6 -5 -5 -4 -4 -4 -4 -4 -3 -3 -3 -3 -4 -4 -3 -3 -3 -3 -4 -4 -5 -5 -4 -3 -2 -1 -0 1 1 2 3 4 4 4 4 3 2 1 1 1 1 1 1 1 1 1
-1 -1 -1 -2 -2 -2 -2 -2 -2 -2 -2 -2 -3 -3 -3 -3 -3 -4 -4 -4 -4 -4 -5 -6 -6 -6 -6 -5 -5 -5 -5 -4 -4 -3 -3 -3 -4 -4 -4 -3 -3 -3 -4 -4 -5 -5 -5 -4 -3 -2 -1 0 1 1 2 3 3 3 3 3 2 2 1 1 1 2 2 1 1
-1 -1 -1 -2 -2 -2 -2 -2 -2 -2 -2 -2 -3 -3 -3 -3 -3 -4 -4 -4 -4 -5 -5 -6 -6 -6 -7 -6 -6 -6 -6 -5 -4 -4 -3 -3 -4 -4 -4 -4 -4 -4 -4 -4 -4 -4 -5 -5 -4 -3 -2 -1 -0 0 1 2 2 2 2 3 3 2 2 1 2 2 2 2 1
Height
5605 5601 5598 5595 5591 5588 5585 5582 5580 5577 5575 5572 5571 5569 5568 5567 5565 5563 5561 5559 5557 5555 5552 5550 5548 5546 5543 5541 5541 5541 5541 5542 5544 5545 5545 5546 5548 5550 5552 5554 5555 5557 5559 5562 5565 5567 5571 5574 5577 5580 5583 5586 5590 5593 5596 5598 5601 5604 5606 5609 5611 5613 5616 5618 5621 5624 5626 5629 5632
5606 5602 5599 5596 5593 5590 5586 5584 5581 5579 5576 5574 5572 5570 5569 5569 5568 5566 5565 5563 5561 5559 5557 5555 5553 5551 5550 5548 5546 5546 5546 5547 5548 5550 5551 5551 5552 5554 5556 5558 5559 5561 5563 5566 5568 5571 5573 5576 5579 5582 5585 5588 5591 5593 5596 5598 5601 5604 5607 5609 5611 5614 5616 5618 5621 5624 5626 5629 5631
5607 5604 5601 5598 5595 5591 5588 5586 5583 5581 5578 5576 5574 5572 5571 5569 5569 5568 5567 5566 5565 5563 5561 5559 5558 5556 5555 5553 5552 5551 5551 5552 5552 5553 5555 5556 5557 5558 5560 5561 5563 5565 5567 5569 5571 5574 5576 5578 5581 5584 5586 5589 5591 5594 5596 5599 5601 5604 5607 5609 5612 5614 5616 5619 5621 5624 5626 5629 5631
5608 5605 5602 5599 5596 5593 5590 5587 5585 5582 5580 5578 5576 5574 5572 5571 5570 5569 5569 5568 5567 5566 5565 5563 5562 5560 5559 5558 5557 5556 5556 5556 5556 5557 5558 5559 5560 5562 5564 5565 5567 5569 5571 5573 5575 5577 5579 5581 5583 5586 5588 5590 5592 5595 5597 5600 5602 5604 5606 5609 5611 5614 5617 5620 5622 5624 5627 5629 5631
5609 5606 5603 5600 5597 5595 5592 5589 5586 5584 5582 5580 5578 5576 5575 5573 5571 5571 5570 5570 5570 5569 5568 5567 5566 5564 5563 5562 5561 5561 5561 5560 5560 5560 5561 5562 5563 5565 5566 5568 5570 5572 5574 5576 5578 5580 5582 5584 5586 5587 5589 5591 5594 5596 5599 5601 5602 5604 5606 5608 5611 5614 5617 5620 5623 5626 5628 5630 5631
5610 5607 5604 5601 5599 5596 5594 5591 5588 5586 5583 5581 5580 5578 5577 5575 5574 5572 5572 5571 5571 5571 5571 5570 5569 5568 5566 5566 5565 5565 5564 5564 5564 5564 5565 5565 5566 5567 5568 5570 5572 5574 5576 5578 5580 5582 5584 5586 5587 5589 5591 5592 5595 5596 5598 5600 5602 5604 5606 5608 5610 5613 5616 5620 5623 5626 5629 5631 5632
5610 5608 5605 5603 5600 5597 5595 5593 5590 5587 5585 5583 5581 5580 5579 5577 5576 5575 5573 5573 5572 5572 5572 5571 5571 5571 5570 5569 5568 5568 5567 5567 5567 5568 5568 5569 5569 5569 5570 5571 5573 5575 5577 5579 5581 5583 5585 5587 5588 5590 5591 5593 5595 5597 5599 5600 5602 5603 5605 5607 5609 5612 5615 5619 5622 5626 5628 5630 5631
5611 5608 5606 5604 5601 5599 5597 5594 5592 5589 5587 5585 5583 5582 5581 5580 5578 5577 5576 5574 5573 5573 5573 5572 5573 5573 5573 5572 5571 5571 5571 5570 5570 5570 5571 5571 5572 5572 5573 5573 5574 5576 5577 5579 5581 5583 5586 5587 5589 5591 5592 5594 5595 5596 5598 5600 5601 5603 5605 5606 5609 5611 5614 5618 5623 5626 5628 5629 5630
5611 5609 5607 5605 5602 5600 5598 5596 5593 5591 5589 5587 5586 5584 5582 5581 5581 5580 5578 5576 5575 5575 5574 5574 5574 5574 5574 5574 5574 5574 5573 5573 5573 5573 5573 5573 5574 5575 5575 5576 5576 5577 5578 5579 5581 5583 5586 5588 5590 5591 5593 5593 5594 5596 5597 5599 5601 5603 5605 5606 5608 5610 5613 5618 5623 5625 5626 5627 5629
5613 5610 5608 5606 5604 5601 5599 5597 5595 5593 5591 5589 5588 5586 5585 5583 5582 5581 5580 5579 5577 5576 5576 5575 5575 5575 5575 5575 5576 5576 5575 5575 5575 5575 5575 5575 5576 5576 5577 5577 5578 5578 5579 5580 5581 5583 5585 5588 5589 5592 5593 5593 5594 5596 5597 5599 5601 5603 5604 5606 5607 5610 5613 5617 5621 5623 5624 5625 5627
5613 5611 5609 5607 5605 5603 5601 5598 5596 5595 5593 5591 5590 5588 5586 5585 5584 5582 5581 5581 5579 5578 5577 5576 5576 5576 5576 5576 5576 5576 5577 5577 5577 5577 5577 5577 5577 5578 5578 5579 5579 5580 5580 5581 5581 5583 5585 5586 5590 5593 5594 5594 5594 5595 5596 5598 5600 5602 5604 5606 5607 5609 5612 5615 5619 5621 5622 5623 5624
5614 5612 5610 5608 5606 5604 5602 5600 5598 5596 5595 5593 5591 5590 5588 5587 5585 5584 5583 5582 5581 5580 5579 5578 5577 5577 5576 5576 5576 5576 5577 5578 5578 5578 5578 5579 5579 5579 5580 5580 5581 5581 5581 5582 5582 5583 5584 5585 5589 5592 5594 5593 5593 5594 5596 5597 5599 5601 5603 5605 5607 5609 5611 5613 5616 5619 5621 5622 5623
5614 5612 5610 5608 5606 5605 5603 5601 5600 5598 5596 5595 5593 5591 5590 5589 5587 5586 5584 5583 5582 5581 5580 5580 5579 5578 5578 5577 5577 5577 5577 5578 5579 5579 5580 5580 5580 5581 5581 5581 5582 5582 5583 5583 5583 5584 5584 5585 5587 5590 5592 5593 5593 5594 5596 5598 5599 5601 5603 5605 5606 5608 5610 5611 5614 5617 5619 5621 5623
5614 5612 5611 5609 5607 5606 5604 5603 5601 5600 5598 5596 5595 5593 5591 5590 5589 5587 5586 5585 5583 5582 5581 5581 5580 5580 5579 5579 5579 5578 5578 5578 5579 5579 5580 5581 5581 5581 5582 5582 5583 5583 5583 5584 5584 5585 5586 5586 5586 5588 5590 5592 5593 5595 5598 5599 5600 5601 5602 5604 5606 5607 5609 5611 5612 5615 5618 5621 5622
5614 5612 5611 5609 5608 5606 5605 5604 5602 5601 5600 5598 5596 5595 5593 5591 5590 5588 5587 5586 5585 5583 5582 5582 5581 5581 5580 5580 5579 5579 5579 5579 5579 5579 5580 5580 5581 5581 5582 5583 5583 5584 5584 5585 5585 5586 5586 5586 5587 5588 5589 5592 5595 5598 5601 5602 5602 5601 5602 5604 5605 5607 5608 5610 5611 5614 5616 5619 5621
5614 5613 5611 5610 5608 5607 5606 5605 5603 5602 5600 5599 5597 5596 5594 5593 5591 5590 5589 5587 5586 5585 5584 5583 5582 5582 5581 5581 5580 5580 5580 5580 5580 5580 5580 5581 5581 5581 5582 5582 5583 5584 5585 5585 5586 5586 5587 5587 5588 5589 5590 5592 5595 5598 5600 5601 5603 5602 5601 5602 5604 5605 5607 5608 5610 5612 5615 5618 5619
5614 5613 5611 5610 5609 5607 5606 5605 5604 5602 5601 5600 5598 5597 5596 5594 5593 5591 5590 5589 5588 5586 5585 5584 5583 5583 5582 5581 5581 5580 5580 5580 5580 5580 5581 5581 5581 5581 5581 5582 5582 5583 5584 5585 5586 5587 5587 5588 5588 5589 5591 5592 5594 5596 5596 5596 5598 5600 5601 5601 5602 5603 5605 5607 5609 5611 5613 5615 5617
5614 5613 5611 5610 5609 5607 5606 5605 5604 5602 5601 5600 5599 5597 5596 5595 5594 5593 5591 5590 5589 5588 5587 5586 5585 5584 5583 5582 5581 5580 5579 5580 5580 5580 5581 5581 5581 5581 5581 5581 5582 5583 5583 5584 5585 5586 5587 5588 5589 5590 5591 5592 5593 5593 5592 5592 5593 5595 5598 5601 5601 5602 5604 5606 5608 5610 5611 5612 5614
5614 5613 5611 5610 5609 5607 5606 5605 5604 5603 5601 5600 5599 5598 5596 5596 5594 5593 5592 5591 5590 5590 5589 5588 5586 5585 5584 5583 5581 5580 5580 5581 5581 5581 5581 5581 5581 5581 5581 5582 5582 5582 5583 5584 5584 5585 5586 5587 5589 5590 5591 5592 5593 5592 5591 5590 5591 5592 5595 5598 5600 5601 5603 5605 5607 5609 5609 5610 5611
5614 5613 5611 5610 5609 5607 5606 5605 5603 5602 5601 5600 5599 5598 5596 5596 5595 5594 5593 5592 5591 5590 5589 5589 5588 5586 5585 5584 5582 5581 5581 5581 5582 5583 5582 5581 5581 5581 5582 5582 5582 5583 5583 5583 5584 5585 5585 5586 5588 5589 5591 5592 5593 5592 5591 5590 5591 5592 5594 5596 5598 5600 5602 5604 5606 5608 5609 5609 5610
5614 5613 5611 5610 5609 5607 5606 5604 5603 5602 5601 5599 5598 5597 5596 5595 5594 5594 5593 5592 5591 5591 5590 5589 5588 5587 5586 5585 5585 5584 5583 5583 5583 5584 5584 5584 5584 5583 5582 5582 5582 5583 5583 5583 5584 5584 5585 5586 5586 5588 5589 5591 5591 5592 5591 5591 5591 5593 5594 5596 5597 5599 5601 5603 5605 5606 5607 5608 5609
5613 5612 5611 5610 5608 5607 5606 5604 5603 5601 5600 5599 5598 5597 5596 5595 5594 5593 5592 5592 5591 5591 5590 5589 5589 5588 5587 5587 5586 5586 5586 5586 5586 5585 5585 5585 5585 5585 5584 5584 5583 5582 5583 5583 5584 5584 5584 5585 5586 5586 5588 5589 5590 5591 5591 5591 5592 5593 5595 5596 5597 5599 5600 5602 5603 5605 5606 5607 5608
5613 5611 5610 5609 5608 5606 5605 5604 5602 5601 5600 5598 5597 5596 5595 5594 5593 5592 5592 5591 5591 5590 5590 5589 5589 5588 5588 5587 5587 5587 5587 5587 5587 5587 5586 5585 5585 5584 5584 5585 5585 5584 5584 5583 5583 5584 5584 5584 5585 5586 5587 5588 5589 5590 5591 5591 5592 5593 5595 5596 5597 5598 5600 5601 5602 5604 5605 5606 5607
5612 5611 5610 5608 5607 5606 5604 5603 5602 5601 5599 5598 5597 5596 5595 5594 5593 5592 5591 5591 5590 5590 5589 5589 5589 5589 5588 5588 5588 5587 5587 5587 5587 5587 5587 5586 5585 5584 5584 5583 5584 5584 5584 5583 5584 5584 5584 5584 5585 5585 5586 5587 5588 5589 5590 5591 5592 5593 5594 5595 5596 5597 5599 5600 5601 5602 5604 5605 5606
5611 5610 5609 5607 5606 5605 5604 5603 5601 5600 5599 5598 5597 5596 5594 5593 5592 5591 5591 5590 5589 5589 5588 5588 5588 5588 5588 5588 5588 5587 5587 5587 5587 5587 5587 5586 5586 5585 5584 5583 5583 5583 5583 5583 5583 5584 5584 5585 5585 5585 5585 5586 5587 5588 5589 5590 5591 5592 5593 5594 5595 5596 5597 5599 5600 5601 5602 5603 5605
5610 5608 5607 5606 5605 5604 5603 5602 5601 5600 5599 5597 5596 5595 5594 5593 5592 5591 5590 5589 5589 5588 5587 5587 5587 5587 5587 5587 5587 5587 5587 5587 5586 5586 5586 5586 5585 5585 5584 5584 5583 5582 5582 5582 5582 5582 5583 5583 5584 5585 5585 5586 5586 5587 5588 5589 5590 5591 5592 5593 5594 5595 5596 5597 5598 5599 5601 5601 5603
5608 5607 5606 5605 5604 5603 5602 5601 5600 5599 5598 5597 5596 5595 5594 5592 5591 5591 5590 5589 5588 5587 5586 5586 5586 5585 5585 5586 5586 5586 5586 5586 5586 5586 5585 5585 5585 5584 5584 5583 5583 5582 5582 5581 5581 5581 5581 5582 5583 5583 5584 5585 5585 5586 5587 5587 5588 5589 5590 5591 5592 5593 5594 5595 5596 5597 5598 5599 5601
5607 5606 5605 5604 5603 5602 5601 5600 5599 5598 5597 5596 5595 5594 5593 5592 5591 5590 5589 5588 5587 5586 5586 5585 5585 5584 5584 5584 5584 5584 5585 5585 5585 5585 5585 5584 5584 5583 5583 5582 5582 5581 5581 5581 5581 5581 5581 5581 5581 5582 5582 5583 5584 5585 5585 5586 5587 5588 5589 5590 5590 5591 5592 5593 5594 5595 5596 5597 5598
5606 5605 5604 5603 5602 5601 5600 5599 5598 5597 5596 5595 5594 5593 5592 5591 5590 5589 5588 5587 5586 5586 5585 5584 5584 5583 5583 5582 5582 5582 5582 5583 5583 5584 5584 5583 5583 5582 5582 5581 5581 5580 5580 5580 5579 5579 5579 5580 5580 5580 5581 5581 5582 5583 5583 5584 5585 5586 5586 5587 5588 5589 5590 5591 5591 5592 5593 5594 5596
5605 5604 5603 5602 5601 5600 5599 5598 5597 5596 5595 5594 5593 5592 5591 5590 5589 5588 5587 5586 5586 5585 5584 5584 5583 5582 5582 5581 5581 5581 5581 5581 5581 5581 5582 5582 5582 5581 5581 5581 5580 5579 5578 5578 5578 5578 5578 5578 5578 5578 5579 5579 5580 5581 5581 5582 5583 5583 5584 5585 5586 5586 5587 5588 5589 5590 5591 5592 5593
5603 5602 5601 5601 5600 5599 5598 5597 5596 5595 5594 5593 5592 5591 5590 5589 5588 5587 5586 5586 5585 5584 5583 5582 5582 5581 5581 5580 5580 5580 5579 5579 5579 5579 5580 5580 5580 5580 5580 5579 5579 5578 5577 5577 5576 5576 5576 5576 5576 5576 5577 5577 5578 5578 5579 5580 5581 5581 5582 5583 5583 5584 5585 5586 5586 5587 5588 5589 5590
5602 5601 5600 5599 5598 5598 5597 5596 5595 5594 5593 5592 5591 5590 5589 5588 5587 5586 5586 5585 5584 5583 5582 5581 5581 5580 5580 5579 5579 5578 5578 5577 5577 5577 5577 5577 5577 5578 5578 5577 5577 5576 5576 5576 5575 5574 5574 5573 5573 5574 5574 5575 5575 5576 5576 5577 5578 5578 5579 5580 5581 5581 5582 5583 5583 5584 5586 5586 5587
5601 5600 5599 5598 5597 5596 5596 5595 5594 5592 5591 5591 5590 5589 5588 5587 5586 5585 5584 5584 5583 5582 5581 5580 5580 5579 5578 5578 5577 5576 5576 5576 5575 5575 5575 5575 5575 5575 5575 5575 5575 5574 5574 5574 5573 5573 5572 5571 5571 5571 5571 5572 5572 5573 5573 5574 5575 5576 5576 5576 5577 5578 5579 5580 5580 5581 5582 5583 5584
5599 5598 5597 5596 5596 5595 5594 5593 5592 5591 5590 5589 5588 5587 5586 5586 5585 5584 5583 5582 5581 5581 5580 5579 5578 5577 5576 5576 5575 5574 5574 5573 5573 5572 5572 5572 5572 5572 5572 5572 5571 5571 5571 5571 5571 5571 5570 5570 5569 5569 5569 5569 5569 5570 5570 5571 5571 5572 5573 5573 5574 5575 5575 5576 5577 5578 5578 5579 5581
5597 5596 5596 5595 5594 5593 5592 5592 5591 5590 5589 5588 5587 5586 5585 5584 5583 5583 5582 5581 5580 5580 5579 5578 5577 5576 5575 5574 5573 5572 5571 5571 5570 5570 5569 5569 5569 5569 5569 5569 5569 5568 5568 5568 5567 5567 5567 5567 5567 5566 5566 5566 5566 5566 5566 5567 5568 5569 5569 5570 5571 5571 5571 5572 5573 5574 5575 5576 5577
5596 5595 5594 5593 5592 5592 5591 5590 5589 5588 5587 5586 5586 5585 5584 5583 5582 5581 5580 5579 5579 5578 5577 5576 5575 5574 5573 5572 5571 5570 5569 5568 5568 5567 5566 5566 5566 5566 5566 5566 5565 5565 5565 5564 5564 5564 5564 5564 5563 5563 5563 5563 5563 5563 5563 5564 5564 5565 5565 5566 5566 5567 5568 5568 5569 5570 5571 5571 5573
5594 5593 5592 5592 5591 5590 5589 5589 5588 5587 5586 5585 5584 5583 5582 5581 5580 5579 5578 5577 5577 5576 5575 5574 5573 5573 5572 5571 5570 5569 5568 5566 5566 5565 5564 5564 5563 5563 5562 5562 5562 5562 5561 5561 5561 5560 5560 5560 5560 5560 5560 5560 5560 5560 5560 5560 5561 5561 5561 5562 5562 5563 5564 5564 5565 5565 5566 5567 5568
5592 5591 5591 5590 5589 5589 5588 5587 5586 5585 5584 5584 5583 5582 5581 5580 5579 5578 5577 5576 5575 5574 5573 5572 5571 5571 5570 5569 5568 5567 5566 5565 5564 5563 5562 5561 5561 5560 5560 5559 5559 5558 5558 5558 5557 5557 5556 5556 5556 5556 5556 5556 5556 5556 5556 5556 5557 5557 5557 5558 5558 5558 5559 5560 5561 5561 5562 5562 5563
5591 5590 5589 5588 5588 5587 5586 5586 5585 5584 5583 5582 5581 5581 5580 5579 5577 5576 5575 5574 5573 5572 5571 5570 5569 5568 5568 5567 5566 5566 5565 5564 5562 5561 5560 5559 5558 5558 5557 5556 5556 5555 5555 5554 5554 5553 5553 5552 5551 5551 5551 5551 5551 5551 5552 5552 5552 5553 5553 5554 5554 5554 5555 5555 5556 5557 5557 5558 5559
5589 5588 5587 5587 5586 5585 5585 5584 5583 5582 5581 5581 5580 5579 5578 5577 5576 5575 5573 5572 5571 5570 5569 5568 5567 5566 5565 5564 5564 5563 5562 5561 5561 5560 5558 5557 5556 5556 5555 5554 5553 5552 5552 5551 5551 5550 5549 5549 5548 5547 5547 5547 5547 5547 5547 5547 5548 5548 5549 5549 5550 5550 5551 5551 5551 5552 5553 5554 5554
5587 5586 5586 5585 5584 5583 5583 5582 5581 5581 5580 5579 5578 5577 5576 5575 5574 5573 5572 5571 5569 5568 5567 5566 5565 5564 5563 5562 5561 5560 5560 5559 5558 5557 5556 5555 5554 5553 5552 5551 5551 5550 5549 5548 5547 5547 5546 5545 5545 5544 5543 5543 5542 5542 5542 5543 5543 5543 5544 5545 5545 5546 5546 5547 5547 5548 5549 5549 5550